Latest Weather Observations for Bellambi

IDN60801

Issued at 8:04 pm EST Thursday 30 June 2016 (issued every 30 minutes, with the page automatically refreshed every 10 minutes)

About weather observations | Map of weather stations | Latest weather observations for NSW | Other Formats
Station Details ID: 068228 Name: BELLAMBI AWS Lat: -34.37 Lon: 150.93 Height: 10.0 m
Data from the previous 72 hours. | See also: Recent months at Bellambi
Date/Time
EST
Temp
°C
App
Temp
°C
Dew
Point
°C
Rel
Hum
%
Delta-T
°C
Wind Press
QNH
hPa
Press
MSL
hPa
Rain since
9am
mm
Dir  Spd
km/h
Gust
km/h
Spd
kts
Gust
kts
30/08:00pm 13.7 7.3 0.7 41 5.5 NNW 24 37 13 20 - - 0.0
30/07:30pm 13.5 8.6 1.8 45 5.1 NNW 17 26 9 14 - - 0.0
30/07:00pm 12.7 8.5 1.4 46 4.8 NW 13 20 7 11 - - 0.0
30/06:30pm 13.1 11.0 1.8 46 4.9 N 2 9 1 5 - - 0.0
30/06:00pm 13.5 9.5 3.0 49 4.7 N 13 19 7 10 - - 0.0
30/05:30pm 13.7 9.7 2.6 47 4.9 N 13 24 7 13 - - 0.0
30/05:00pm 13.6 10.3 2.2 46 5.0 N 9 13 5 7 - - 0.0
30/04:30pm 14.1 9.5 1.7 43 5.4 N 15 19 8 10 - - 0.0
30/04:00pm 13.9 9.6 1.2 42 5.4 NNW 13 19 7 10 - - 0.0
30/03:30pm 13.9 9.6 1.2 42 5.4 NNW 13 19 7 10 - - 0.0
30/03:00pm 14.2 9.5 0.8 40 5.7 N 15 22 8 12 - - 0.0
30/02:30pm 14.5 10.0 -0.4 36 6.2 NNW 13 19 7 10 - - 0.0
30/02:00pm 14.9 9.8 0.7 38 6.1 N 17 22 9 12 - - 0.0
30/01:30pm 15.8 12.2 0.4 35 6.6 N 9 19 5 10 - - 0.0
30/01:00pm 16.2 10.3 -0.5 32 7.1 NW 20 30 11 16 - - 0.0
30/12:30pm 16.0 10.8 0.2 34 6.8 N 17 26 9 14 - - 0.0
30/12:00pm 15.5 10.4 0.5 36 6.4 NNW 17 30 9 16 - - 0.0
30/11:30am 16.7 13.4 -0.1 32 7.2 NNW 7 15 4 8 - - 0.0
30/11:00am 16.5 13.4 1.4 36 6.7 NNW 7 13 4 7 - - 0.0
30/10:30am 15.7 12.5 3.2 43 5.7 WNW 9 17 5 9 - - 0.0
30/10:00am 14.8 10.5 3.0 45 5.3 NW 15 20 8 11 - - 0.0
30/09:30am 13.7 9.4 3.5 50 4.6 NW 15 20 8 11 - - 0.0
30/09:00am 12.9 8.5 2.7 50 4.5 NW 15 20 8 11 - - 0.0
30/08:30am 12.3 9.0 2.5 51 4.3 W 9 11 5 6 - - 0.0
30/08:00am 11.3 8.0 2.3 54 3.9 WSW 9 11 5 6 - - 0.0
30/07:30am 9.8 7.1 2.6 61 3.1 SW 6 11 3 6 - - 0.0
30/07:00am 10.7 6.8 3.5 61 3.2 NW 13 19 7 10 - - 0.0
30/06:30am 10.7 5.9 4.4 65 2.8 NW 19 24 10 13 - - 0.0
30/06:00am 8.8 6.1 2.8 66 2.5 SSW 6 9 3 5 - - 0.0
30/05:30am 9.6 6.8 3.1 64 2.8 W 7 13 4 7 - - 0.0
30/05:00am 10.4 5.9 4.1 65 2.8 NW 17 30 9 16 - - 0.0
30/04:30am 10.3 6.3 3.1 61 3.1 WNW 13 20 7 11 - - 0.0
30/04:00am 10.7 8.0 2.5 57 3.5 WSW 6 9 3 5 - - 0.0
30/03:30am 12.9 8.1 4.8 58 3.7 NNW 19 26 10 14 - - 0.0
30/03:00am 13.7 8.0 4.8 55 4.1 NNW 24 32 13 17 - - 0.0
30/02:30am 13.6 8.6 4.5 54 4.2 N 20 28 11 15 - - 0.0
30/02:00am 13.5 8.2 5.2 57 3.9 N 22 33 12 18 - - 0.0
30/01:30am 12.5 9.6 4.7 59 3.6 NNW 9 15 5 8 - - 0.0
30/01:00am 12.9 9.3 4.8 58 3.7 NNW 13 20 7 11 - - 0.0
30/12:30am 12.2 8.5 4.2 58 3.6 NW 13 20 7 11 - - 0.0
30/12:00am 11.6 7.5 6.3 70 2.5 NW 17 19 9 10 - - 0.0
 
Date/Time
EST
Temp
°C
App
Temp
°C
Dew
Point
°C
Rel
Hum
%
Delta-T
°C
Wind Press
QNH
hPa
Press
MSL
hPa
Rain since
9am
mm
Dir  Spd
km/h
Gust
km/h
Spd
kts
Gust
kts
29/11:30pm 11.1 7.3 5.6 69 2.5 NW 15 17 8 9 - - 0.0
29/11:00pm 10.9 7.5 6.1 72 2.2 NW 13 17 7 9 - - 0.0
29/10:30pm 10.8 7.3 5.3 69 2.5 NW 13 15 7 8 - - 0.0
29/10:00pm 11.1 8.0 5.4 68 2.6 NW 11 13 6 7 - - 0.0
29/09:30pm 11.1 8.3 5.2 67 2.7 WNW 9 11 5 6 - - 0.0
29/09:00pm 11.3 8.6 5.6 68 2.6 NW 9 11 5 6 - - 0.0
29/08:30pm 11.7 8.7 6.2 69 2.6 NW 11 13 6 7 - - 0.0
29/08:00pm 11.4 8.8 5.9 69 2.6 WNW 9 11 5 6 - - 0.0
29/07:30pm 11.6 9.0 5.9 68 2.7 WNW 9 9 5 5 - - 0.0
29/07:00pm 11.6 9.0 5.9 68 2.7 WNW 9 9 5 5 - - 0.0
29/06:30pm 12.2 9.9 5.8 65 3.0 WNW 7 9 4 5 - - 0.0
29/06:00pm 12.4 9.8 6.0 65 3.0 WNW 9 9 5 5 - - 0.0
29/05:30pm 12.8 10.2 6.2 64 3.1 WNW 9 9 5 5 - - 0.0
29/05:00pm 13.8 11.5 5.9 59 3.7 W 7 11 4 6 - - 0.0
29/04:30pm 15.8 14.4 5.7 51 4.8 ESE 2 7 1 4 - - 0.0
29/04:00pm 16.4 15.5 6.0 50 5.0 CALM 0 2 0 1 - - 0.0
29/03:30pm 16.7 14.5 5.3 47 5.5 SE 6 7 3 4 - - 0.0
29/03:00pm 16.9 14.7 6.1 49 5.3 ESE 7 9 4 5 - - 0.0
29/02:30pm 16.9 14.2 5.8 48 5.4 ESE 9 11 5 6 - - 0.0
29/02:00pm 16.9 14.4 6.7 51 5.0 SE 9 13 5 7 - - 0.0
29/01:30pm 17.0 14.9 6.5 50 5.2 SE 7 9 4 5 - - 0.0
29/01:00pm 16.6 13.4 5.3 47 5.4 SE 11 13 6 7 - - 0.0
29/12:30pm 16.5 13.3 5.2 47 5.4 SE 11 11 6 6 - - 0.0
29/12:00pm 16.7 14.3 5.3 47 5.5 SE 7 9 4 5 - - 0.0
29/11:30am 16.9 14.9 6.4 50 5.2 SE 6 7 3 4 - - 0.0
29/11:00am 16.4 15.1 6.0 50 5.0 SE 2 6 1 3 - - 0.0
29/10:30am 15.9 14.9 5.8 51 4.9 CALM 0 4 0 2 - - 0.0
29/10:00am 15.6 14.1 6.9 56 4.3 SE 4 9 2 5 - - 0.0
29/09:30am 15.2 13.7 6.7 57 4.1 SE 4 6 2 3 - - 0.0
29/09:00am 13.8 12.8 5.4 57 3.9 CALM 0 0 0 0 - - 0.0
29/08:30am 12.4 10.0 4.4 58 3.6 WNW 6 9 3 5 - - 0.0
29/08:00am 10.7 8.3 4.2 64 2.9 NW 6 7 3 4 - - 0.0
29/07:30am 9.7 7.0 3.9 67 2.5 NW 7 9 4 5 - - 0.0
29/07:00am 9.3 7.1 3.5 67 2.5 NW 4 7 2 4 - - 0.0
29/06:30am 8.8 5.9 2.6 65 2.6 WNW 7 9 4 5 - - 0.0
29/06:00am 8.9 6.1 2.9 66 2.6 WNW 7 9 4 5 - - 0.0
29/05:30am 8.6 4.9 2.6 66 2.5 WNW 11 13 6 7 - - 0.0
29/05:00am 8.8 5.5 2.6 65 2.6 NW 9 13 5 7 - - 0.0
29/04:30am 9.0 5.8 3.0 66 2.6 NW 9 13 5 7 - - 0.0
29/04:00am 10.0 8.6 3.7 65 2.8 CALM 0 0 0 0 - - 0.0
29/03:30am 9.9 6.5 2.0 58 3.3 W 9 13 5 7 - - 0.0
29/03:00am 10.4 7.6 3.2 61 3.1 NW 7 11 4 6 - - 0.0
29/02:30am 10.0 5.9 2.4 59 3.2 W 13 19 7 10 - - 0.0
29/02:00am 9.5 6.2 2.4 61 3.0 WNW 9 11 5 6 - - 0.0
29/01:30am 9.4 5.7 2.3 61 3.0 WNW 11 13 6 7 - - 0.0
29/01:00am 9.7 6.5 3.0 63 2.9 WNW 9 11 5 6 - - 0.0
29/12:30am 10.2 6.5 2.3 58 3.4 W 11 15 6 8 - - 0.0
29/12:00am 10.5 6.0 2.4 57 3.5 W 15 20 8 11 - - 0.0
 
Date/Time
EST
Temp
°C
App
Temp
°C
Dew
Point
°C
Rel
Hum
%
Delta-T
°C
Wind Press
QNH
hPa
Press
MSL
hPa
Rain since
9am
mm
Dir  Spd
km/h
Gust
km/h
Spd
kts
Gust
kts
28/11:30pm 10.5 6.0 2.1 56 3.6 W 15 22 8 12 - - 0.0
28/11:00pm 10.6 5.8 2.4 57 3.5 W 17 22 9 12 - - 0.0
28/10:30pm 10.4 5.5 2.3 57 3.4 WSW 17 22 9 12 - - 0.0
28/10:00pm 10.5 5.7 2.6 58 3.4 WSW 17 22 9 12 - - 0.0
28/09:30pm 10.4 6.0 2.7 59 3.3 WSW 15 22 8 12 - - 0.0
28/09:00pm 10.5 6.1 2.8 59 3.3 WSW 15 22 8 12 - - 0.0
28/08:30pm 10.4 6.8 2.7 59 3.3 WSW 11 15 6 8 - - 0.0
28/08:00pm 10.8 6.5 3.1 59 3.3 WSW 15 20 8 11 - - 0.0
28/07:30pm 11.0 7.0 3.1 58 3.4 WSW 13 20 7 11 - - 0.0
28/07:00pm 10.6 7.0 2.7 58 3.4 WNW 11 13 6 7 - - 0.0
28/06:30pm 11.1 7.1 2.7 56 3.6 W 13 15 7 8 - - 0.0
28/06:00pm 11.8 8.1 2.5 53 4.0 W 11 13 6 7 - - 0.0
28/05:30pm 11.7 8.1 3.2 56 3.7 W 11 13 6 7 - - 0.0
28/05:00pm 12.4 9.2 3.1 53 4.1 W 9 11 5 6 - - 0.0
28/04:30pm 13.9 10.2 2.5 46 5.0 SW 11 17 6 9 - - 0.0
28/04:00pm 14.7 9.6 2.9 45 5.3 SW 19 24 10 13 - - 0.0
28/03:30pm 15.1 10.1 4.5 49 4.9 SSW 20 28 11 15 - - 0.0
28/03:00pm 15.2 10.1 4.0 47 5.2 SSW 20 26 11 14 - - 0.0
28/02:30pm 15.2 9.9 5.1 51 4.8 SSW 22 28 12 15 - - 0.0
28/02:00pm 15.0 9.7 2.9 44 5.4 SSW 20 30 11 16 - - 0.0
28/01:30pm 15.4 9.9 3.9 46 5.3 SSW 22 30 12 16 - - 0.0
28/01:00pm 14.9 8.2 3.4 46 5.2 SSW 28 35 15 19 - - 0.0
28/12:30pm 14.7 7.5 2.9 45 5.3 SSW 30 39 16 21 - - 0.0
28/12:00pm 14.6 7.0 3.1 46 5.2 SSW 32 41 17 22 - - 0.0
28/11:30am 14.6 8.3 1.5 41 5.7 SW 24 35 13 19 - - 0.0
28/11:00am 14.2 7.8 1.2 41 5.6 WSW 24 33 13 18 - - 0.0
28/10:30am 14.0 7.8 2.0 44 5.2 SW 24 33 13 18 - - 0.0
28/10:00am 13.6 7.7 1.9 45 5.1 SW 22 32 12 17 - - 0.0
28/09:30am 13.3 7.8 1.9 46 4.9 SW 20 32 11 17 - - 0.0
28/09:00am 12.4 7.9 2.3 50 4.4 WSW 15 22 8 12 - - 1.6
28/08:30am 11.2 6.7 2.0 53 3.9 W 15 20 8 11 - - 1.6
28/08:00am 10.7 5.1 1.5 53 3.9 W 20 28 11 15 - - 1.6
28/07:30am 10.1 5.2 1.7 56 3.5 W 17 20 9 11 - - 1.6
28/07:00am 10.1 5.5 1.5 55 3.6 W 15 24 8 13 - - 1.6
28/06:30am 10.3 5.4 1.7 55 3.6 W 17 22 9 12 - - 1.6
28/06:00am 10.3 5.0 1.7 55 3.6 WSW 19 24 10 13 - - 1.6
28/05:30am 10.9 5.5 2.2 55 3.7 WSW 20 33 11 18 - - 1.6
28/05:00am 10.8 5.9 2.1 55 3.7 WSW 17 24 9 13 - - 1.6
28/04:30am 11.5 6.0 2.0 52 4.1 SW 20 30 11 16 - - 1.6
28/04:00am 11.8 6.4 2.3 52 4.1 SW 20 30 11 16 - - 1.6
28/03:30am 11.7 5.6 2.5 53 4.0 SW 24 35 13 19 - - 1.6
28/03:00am 11.6 5.5 2.6 54 3.9 SW 24 35 13 19 - - 1.6
28/02:30am 11.4 6.3 2.9 56 3.7 WSW 19 32 10 17 - - 1.6
28/02:00am 11.2 5.5 2.8 56 3.6 SW 22 32 12 17 - - 1.6
28/01:30am 11.2 6.1 3.0 57 3.6 WSW 19 30 10 16 - - 1.6
28/01:00am 10.8 5.6 2.6 57 3.5 WSW 19 30 10 16 - - 1.6
28/12:30am 10.8 5.0 2.4 56 3.6 WSW 22 32 12 17 - - 1.6
28/12:00am 10.7 5.5 2.3 56 3.6 WSW 19 26 10 14 - - 1.6
 
Date/Time
EST
Temp
°C
App
Temp
°C
Dew
Point
°C
Rel
Hum
%
Delta-T
°C
Wind Press
QNH
hPa
Press
MSL
hPa
Rain since
9am
mm
Dir  Spd
km/h
Gust
km/h
Spd
kts
Gust
kts
27/11:30pm 10.7 5.3 2.5 57 3.5 WSW 20 30 11 16 - - 1.6
27/11:00pm 10.4 5.3 3.2 61 3.1 WSW 19 26 10 14 - - 1.6
27/10:30pm 10.9 5.5 2.7 57 3.5 WSW 20 28 11 15 - - 1.6
27/10:00pm 11.3 5.6 3.1 57 3.6 WSW 22 35 12 19 - - 1.6
27/09:30pm 11.4 5.4 3.2 57 3.6 SW 24 33 13 18 - - 1.6
27/09:00pm 10.7 5.1 3.7 62 3.1 WSW 22 30 12 16 - - 1.6
27/08:30pm 10.6 5.5 4.1 64 2.9 WSW 20 30 11 16 - - 1.6

Other Formats:

Comma delimited format used in spreadsheet applications
http://www.bom.gov.au/fwo/IDN60801/IDN60801.94749.axf

JavaScript Object Notation format (JSON) in row-major order
http://www.bom.gov.au/fwo/IDN60801/IDN60801.94749.json